Date,TemperatureHighF,TemperatureAvgF,TemperatureLowF,DewpointHighF,DewpointAvgF,DewpointLowF,HumidityHigh,HumidityAvg,HumidityLow,PressureMaxIn,PressureMinIn,WindSpeedMaxMPH,WindSpeedAvgMPH,GustSpeedMaxMPH,PrecipitationSumIn
2013-1-1,36.0,29.4,26.0,17.0,11.4,6.0,57,47,37,30.09,29.98,5,0,6,0.03
2013-1-2,41.0,32.3,25.0,16.0,9.9,4.0,53,40,24,30.06,29.97,6,2,8,0.01
2013-1-3,38.0,33.2,29.0,13.0,8.8,-5.0,46,36,17,30.13,29.98,6,1,8,0.01
2013-1-4,44.0,39.7,34.0,17.0,3.9,-12.0,37,23,11,30.19,30.09,1,0,2,0.03
2013-1-5,48.0,40.7,34.0,20.0,10.5,-3.0,40,29,16,30.21,30.06,2,0,2,0.03
2013-1-6,34.0,28.3,25.0,29.0,24.0,13.0,100,87,42,30.06,29.82,7,0,7,0.00
2013-1-7,38.0,29.6,22.0,26.0,19.6,11.0,100,72,33,30.00,29.78,7,2,11,0.00
2013-1-8,52.0,44.1,38.0,29.0,25.0,14.0,64,48,28,30.16,29.96,7,2,11,0.07
2013-1-9,51.0,45.7,38.0,32.0,27.3,23.0,67,49,36,30.16,29.90,4,1,4,0.07
2013-1-10,40.0,26.1,16.0,32.0,24.8,16.0,100,96,55,29.90,29.67,10,2,13,0.00
2013-1-11,24.0,17.9,14.0,19.0,16.5,14.0,100,95,79,29.96,29.83,12,2,12,0.00
2013-1-12,26.0,19.2,14.0,15.0,11.5,9.0,100,73,53,29.96,29.84,2,0,3,0.00
2013-1-13,28.0,21.3,15.0,12.0,8.0,1.0,69,56,43,29.95,29.83,3,0,4,0.00
2013-1-14,26.0,18.4,12.0,8.0,-1.7,-8.0,59,41,27,30.13,29.92,8,2,18,0.00
2013-1-15,41.0,33.9,25.0,23.0,18.1,9.0,61,52,46,30.26,30.13,11,2,13,0.01
2013-1-16,45.0,41.1,38.0,24.0,18.3,6.0,53,41,20,30.27,30.16,9,1,9,0.07
2013-1-17,45.0,38.5,31.0,17.0,13.5,6.0,49,36,20,30.23,30.13,6,1,8,0.07
2013-1-18,47.0,41.7,39.0,20.0,14.1,8.0,40,32,26,30.19,30.11,3,0,5,0.00
2013-1-19,45.0,41.4,37.0,18.0,10.0,4.0,33,27,19,30.23,30.13,3,1,4,0.00
2013-1-20,45.0,42.0,38.0,15.0,7.4,0.0,31,24,17,30.18,30.07,5,1,6,0.00
2013-1-21,48.0,42.6,38.0,16.0,7.9,2.0,32,24,15,30.15,30.06,5,1,6,0.00
2013-1-22,59.0,49.9,42.0,18.0,7.9,-4.0,29,18,10,30.17,30.08,3,0,4,0.00
2013-1-23,56.0,48.8,38.0,36.0,29.6,18.0,92,48,29,30.16,30.05,5,1,6,0.01
2013-1-24,50.0,42.2,37.0,50.0,41.5,30.0,100,98,75,30.16,30.04,5,1,6,0.85
2013-1-25,45.0,42.5,41.0,45.0,42.5,41.0,100,100,100,30.15,29.92,2,0,4,0.85
2013-1-26,44.0,40.9,38.0,44.0,40.9,38.0,100,100,100,29.92,29.83,3,0,3,0.66
2013-1-27,39.0,32.9,22.0,39.0,32.9,22.0,100,100,100,29.89,29.78,8,1,8,0.15
2013-1-28,26.0,22.3,20.0,26.0,22.3,20.0,100,100,100,30.03,29.81,9,2,11,0.07
2013-1-29,48.0,32.9,21.0,36.0,26.2,21.0,100,79,49,30.13,30.01,6,2,9,0.22
2013-1-30,47.0,42.3,36.0,32.0,27.4,24.0,63,55,50,30.26,30.10,6,1,7,0.22
2013-1-31,49.0,44.4,40.0,33.0,28.9,23.0,63,55,41,30.22,30.11,5,1,5,0.00
2013-2-1,53.0,47.0,42.0,33.0,27.9,22.0,54,47,41,30.22,30.13,2,0,3,0.00
2013-2-2,55.0,48.4,42.0,33.0,28.7,25.0,66,46,40,30.24,30.14,0,0,0,0.01
2013-2-3,45.0,40.6,35.0,41.0,34.9,29.0,100,81,61,30.14,30.00,5,1,9,0.12
2013-2-4,51.0,44.5,40.0,34.0,28.2,20.0,64,53,35,30.08,29.98,5,1,6,0.12
2013-2-5,51.0,45.1,40.0,34.0,26.7,14.0,64,49,28,30.03,29.90,3,0,4,0.00
2013-2-6,48.0,41.1,35.0,29.0,21.6,7.0,69,47,23,30.03,29.87,6,1,9,0.00
2013-2-7,47.0,40.0,29.0,39.0,25.4,16.0,100,61,36,30.04,29.77,5,1,5,0.00
2013-2-8,29.0,24.0,21.0,29.0,24.0,21.0,100,100,100,29.77,29.64,3,0,5,0.00
2013-2-9,27.0,22.8,19.0,27.0,22.8,19.0,100,100,100,29.90,29.67,1,0,2,0.00
2013-2-10,28.0,24.6,21.0,28.0,24.6,21.0,100,100,100,29.90,29.81,3,0,3,0.13
2013-2-11,29.0,24.7,20.0,25.0,14.1,5.0,100,68,37,30.09,29.85,5,2,7,0.13
2013-2-12,38.0,31.6,26.0,17.0,12.7,8.0,51,45,38,30.20,30.09,5,1,6,0.03
2013-2-13,44.0,39.0,33.0,23.0,19.3,14.0,54,45,35,30.18,30.09,6,1,9,0.12
2013-2-14,47.0,41.7,36.0,26.0,23.0,20.0,60,48,37,30.18,30.08,5,2,7,0.12
2013-2-15,54.0,44.4,39.0,28.0,17.2,5.0,51,34,22,30.26,30.13,5,1,6,0.00
2013-2-16,56.0,48.4,41.0,20.0,8.4,-3.0,34,20,11,30.26,29.98,2,0,3,0.00
2013-2-17,48.0,41.8,37.0,27.0,18.8,13.0,64,40,29,29.98,29.85,4,0,6,0.00
2013-2-18,49.0,40.6,34.0,31.0,22.0,13.0,86,49,34,29.95,29.80,3,1,5,0.00
2013-2-19,36.0,27.8,25.0,29.0,26.4,17.0,100,96,45,29.80,29.45,2,0,3,0.00
2013-2-20,29.0,23.2,16.0,29.0,23.2,16.0,100,100,100,29.81,29.39,7,1,8,0.00
2013-2-21,27.0,24.5,22.0,27.0,22.7,16.0,100,93,72,29.95,29.79,5,1,6,0.00
2013-2-22,40.0,32.1,22.0,27.0,18.5,11.0,79,57,47,30.07,29.95,4,0,5,0.25
2013-2-23,45.0,36.2,27.0,30.0,24.0,13.0,100,63,39,30.06,29.79,12,2,11,0.25
2013-2-24,34.0,28.8,23.0,13.0,3.6,-2.0,52,34,22,30.11,29.82,13,3,16,0.07
2013-2-25,46.0,37.5,29.0,21.0,8.0,-99.9,45,31,21,30.13,29.97,8,1,8,0.00
2013-2-26,45.0,37.2,30.0,21.0,12.8,2.0,62,38,21,30.07,29.90,11,2,22,0.00
2013-2-27,43.0,38.0,33.0,13.0,8.3,4.0,36,29,23,30.24,30.07,7,1,13,0.00
2013-2-28,54.0,43.7,37.0,22.0,14.4,7.0,41,30,26,30.33,30.22,5,1,5,0.00
2013-3-1,59.0,48.8,40.0,25.0,19.5,16.0,39,31,21,30.34,30.24,3,0,3,0.00
2013-3-2,59.0,51.5,45.0,25.0,19.2,12.0,44,28,19,30.31,30.13,3,0,4,0.00
2013-3-3,50.0,44.1,38.0,32.0,25.6,16.0,78,50,29,30.13,29.90,4,1,5,0.00
2013-3-4,50.0,41.7,33.0,40.0,34.3,30.0,100,76,59,30.04,29.89,9,1,10,0.00
2013-3-5,51.0,43.2,35.0,44.0,35.6,30.0,100,76,48,30.04,29.91,4,1,5,0.00
2013-3-6,44.0,35.2,30.0,40.0,34.4,30.0,100,97,77,29.98,29.88,5,1,3,0.02
2013-3-7,33.0,31.2,28.0,33.0,31.2,28.0,100,100,100,29.88,29.70,1,0,2,0.06
2013-3-8,29.0,27.2,25.0,29.0,27.2,25.0,100,100,100,29.84,29.58,1,0,2,0.06
2013-3-9,35.0,30.9,27.0,35.0,30.3,26.0,100,98,74,30.11,29.83,5,1,5,0.38
2013-3-10,47.0,39.9,33.0,27.0,16.1,2.0,75,40,15,30.20,30.10,7,2,8,0.38
2013-3-11,57.0,48.9,42.0,26.0,13.0,0.0,38,24,14,30.19,30.07,4,0,4,0.19
2013-3-12,62.0,53.1,46.0,29.0,19.4,3.0,39,27,15,30.18,30.08,2,0,2,0.00
2013-3-13,67.0,58.1,50.0,30.0,23.0,12.0,33,26,20,30.23,30.16,2,0,3,0.00
2013-3-14,70.0,61.6,55.0,35.0,25.0,16.0,38,25,19,30.23,30.14,3,0,3,0.00
2013-3-15,65.0,57.7,49.0,34.0,26.2,8.0,49,30,18,30.15,29.99,3,0,4,0.00
2013-3-16,62.0,53.3,44.0,38.0,20.7,-2.0,44,28,10,29.99,29.90,5,1,8,0.00
2013-3-17,60.0,49.3,42.0,41.0,24.0,7.0,66,38,17,29.98,29.88,6,1,7,0.00
2013-3-18,57.0,50.0,43.0,32.0,19.3,4.0,42,30,17,30.01,29.91,5,1,7,0.00
2013-3-19,57.0,48.8,42.0,35.0,27.2,22.0,52,43,32,30.08,29.95,3,1,6,0.00
2013-3-20,53.0,49.4,44.0,42.0,34.5,30.0,73,56,49,30.08,29.92,4,0,5,0.00
2013-3-21,57.0,46.8,40.0,44.0,32.7,23.0,85,59,33,29.92,29.76,6,0,6,0.00
2013-3-22,56.0,43.6,34.0,38.0,22.5,4.0,86,47,18,29.87,29.70,6,2,8,0.00
2013-3-23,56.0,45.9,37.0,28.0,19.7,10.0,47,35,24,29.98,29.85,5,0,5,0.00
2013-3-24,58.0,48.6,41.0,28.0,18.5,9.0,58,31,22,29.98,29.91,3,1,5,0.00
2013-3-25,58.0,51.1,45.0,37.0,24.5,14.0,70,37,25,29.99,29.91,3,0,3,0.00
2013-3-26,55.0,48.2,43.0,34.0,26.9,13.0,68,45,23,29.94,29.86,3,1,4,0.00
2013-3-27,53.0,45.8,41.0,43.0,32.8,23.0,100,61,45,29.98,29.85,4,1,5,0.00
2013-3-28,57.0,47.8,41.0,45.0,32.9,27.0,92,57,39,30.06,29.95,3,0,4,0.00
2013-3-29,59.0,51.1,45.0,44.0,33.3,28.0,79,51,35,30.11,30.05,3,0,4,0.00
2013-3-30,57.0,50.5,43.0,43.0,30.9,-99.9,93,50,26,30.10,30.03,3,0,4,0.00
2013-3-31,48.0,42.4,37.0,44.0,37.0,24.0,100,83,48,30.05,29.96,3,1,6,0.00
2013-4-1,43.0,37.1,32.0,43.0,36.9,32.0,100,99,90,30.04,29.97,3,0,5,0.00
2013-4-2,55.0,44.6,36.0,45.0,35.4,28.0,96,72,41,30.05,29.96,4,1,5,0.00
2013-4-3,63.0,54.2,46.0,37.0,31.4,25.0,55,42,32,30.11,30.03,2,0,5,0.00
2013-4-4,57.0,51.4,43.0,46.0,34.1,27.0,100,55,31,30.09,29.98,3,1,4,0.00
2013-4-5,54.0,44.9,39.0,47.0,41.0,30.0,100,88,45,30.02,29.93,3,0,3,0.00
2013-4-6,57.0,48.1,39.0,45.0,32.0,23.0,100,55,39,30.01,29.92,5,1,9,0.00
2013-4-7,59.0,48.2,42.0,48.0,34.2,22.0,92,60,36,29.96,29.75,6,1,7,0.00
2013-4-8,43.0,35.7,30.0,42.0,35.2,28.0,100,98,83,29.75,29.51,4,1,7,0.22
2013-4-9,47.0,36.7,27.0,32.0,20.0,8.0,100,58,22,29.95,29.69,5,1,4,0.22
2013-4-10,57.0,47.2,38.0,22.0,12.5,5.0,45,25,14,30.07,29.93,7,2,11,0.00
2013-4-11,58.0,51.7,45.0,39.0,26.5,16.0,75,39,24,30.03,29.75,3,0,3,0.00
2013-4-12,63.0,53.3,46.0,40.0,33.3,27.0,62,47,35,29.89,29.77,3,0,5,0.00
2013-4-13,59.0,52.5,45.0,46.0,30.9,21.0,100,46,29,29.89,29.78,4,1,5,0.00
2013-4-14,61.0,51.6,38.0,37.0,30.2,16.0,98,46,28,29.79,29.68,4,1,5,0.00
2013-4-15,47.0,37.8,34.0,38.0,33.9,20.0,100,89,34,29.77,29.68,4,1,5,0.01
2013-4-16,38.0,31.8,26.0,38.0,29.4,18.0,100,92,58,29.84,29.67,5,1,5,0.02
2013-4-17,45.0,35.0,26.0,27.0,13.9,5.0,95,47,20,30.04,29.83,4,1,10,0.01
2013-4-18,50.0,41.5,32.0,9.0,4.7,-1.0,36,23,14,30.17,30.03,7,2,10,0.00
2013-4-19,61.0,50.4,41.0,18.0,11.9,2.0,29,21,15,30.18,30.02,3,0,5,0.00
2013-4-20,68.0,56.0,46.0,33.0,24.5,17.0,45,30,20,30.04,29.93,7,1,8,0.00
2013-4-21,67.0,58.5,52.0,33.0,26.4,22.0,39,30,19,30.09,30.01,3,0,5,0.00
2013-4-22,63.0,56.0,50.0,38.0,30.2,15.0,56,38,22,30.03,29.88,3,0,4,0.00
2013-4-23,63.0,55.6,49.0,36.0,29.5,19.0,54,37,25,29.96,29.85,6,1,6,0.00
2013-4-24,61.0,51.3,40.0,52.0,34.1,18.0,100,57,25,29.92,29.81,2,0,5,0.00
2013-4-25,57.0,47.4,36.0,45.0,37.7,27.0,100,71,39,30.06,29.83,4,0,4,0.00
2013-4-26,64.0,56.7,48.0,38.0,27.0,17.0,51,33,19,30.20,30.06,2,0,3,0.00
2013-4-27,70.0,61.0,53.0,39.0,26.7,14.0,36,27,12,30.22,30.09,4,1,5,0.00
2013-4-28,72.0,62.4,54.0,33.0,24.6,18.0,32,24,16,30.11,29.96,3,1,5,0.00
2013-4-29,71.0,63.4,56.0,39.0,25.8,13.0,47,25,15,29.98,29.85,3,1,5,0.00
2013-4-30,62.0,56.0,50.0,46.0,33.5,21.0,76,44,27,29.86,29.79,3,1,4,0.00
2013-5-1,67.0,57.5,49.0,38.0,18.9,-9.0,65,26,8,30.16,29.84,6,1,6,0.00
2013-5-2,65.0,56.1,49.0,2.0,-5.9,-13.0,10,8,5,30.23,30.14,6,2,6,0.00
2013-5-3,70.0,59.7,51.0,20.0,6.9,-11.0,23,12,6,30.16,29.91,2,0,4,0.00
2013-5-4,62.0,54.3,45.0,43.0,19.5,4.0,93,30,13,29.91,29.73,3,0,5,0.00
2013-5-5,47.0,42.5,38.0,43.0,32.2,15.0,100,74,27,29.85,29.74,4,1,7,0.01
2013-5-6,41.0,38.3,35.0,41.0,38.3,35.0,100,100,100,29.91,29.80,5,1,5,0.02
2013-5-7,40.0,36.9,34.0,40.0,36.9,34.0,100,100,100,29.97,29.88,1,0,1,0.65
2013-5-8,47.0,40.3,35.0,47.0,40.3,35.0,100,100,100,30.03,29.96,3,0,5,0.02
2013-5-9,55.0,47.0,41.0,50.0,45.2,41.0,100,94,58,30.06,29.99,3,1,5,0.01
2013-5-10,66.0,54.2,44.0,47.0,38.6,-99.9,100,64,28,30.17,30.04,4,1,6,0.01
2013-5-11,72.0,62.8,54.0,42.0,36.3,29.0,60,39,23,30.22,30.15,3,0,6,0.00
2013-5-12,76.0,67.6,60.0,40.0,33.8,27.0,47,29,19,30.25,30.12,1,0,3,0.00
2013-5-13,77.0,68.9,62.0,37.0,33.5,28.0,36,28,18,30.19,30.09,4,1,4,0.00
2013-5-14,68.0,61.0,51.0,37.0,29.9,22.0,54,31,23,30.10,29.98,4,1,8,0.00
2013-5-15,65.0,57.7,53.0,44.0,35.3,22.0,69,44,28,30.04,29.97,4,1,5,0.00
2013-5-16,61.0,52.0,48.0,47.0,24.9,-99.9,96,55,34,29.98,29.88,4,1,4,0.00
2013-5-17,52.0,47.3,44.0,49.0,41.3,-99.9,100,89,64,29.95,29.85,4,1,5,0.00
2013-5-18,61.0,50.8,42.0,50.0,38.6,28.0,100,65,38,30.01,29.93,6,1,9,0.00
2013-5-19,68.0,56.5,48.0,46.0,30.0,21.0,50,37,21,30.16,29.95,5,2,6,0.00
2013-5-20,69.0,60.1,51.0,42.0,26.4,21.0,49,28,17,30.22,30.15,3,0,5,0.00
2013-5-21,68.0,60.8,53.0,41.0,32.4,16.0,55,35,19,30.19,30.04,3,0,5,0.00
2013-5-22,61.0,53.8,43.0,52.0,37.3,21.0,100,58,28,30.04,29.91,4,1,5,0.00
2013-5-23,55.0,48.7,39.0,49.0,34.0,12.0,100,61,22,30.04,29.92,3,0,5,0.00
2013-5-24,57.0,51.7,47.0,48.0,24.9,1.0,98,40,14,30.10,30.02,4,1,4,0.00
2013-5-25,57.0,50.5,44.0,41.0,27.7,9.0,80,44,17,30.14,30.07,3,1,4,0.00
2013-5-26,56.0,50.8,46.0,47.0,33.7,9.0,97,54,21,30.16,30.10,3,0,3,0.00
2013-5-27,66.0,53.9,46.0,49.0,37.1,29.0,81,54,28,30.14,30.03,7,1,7,0.00
2013-5-28,64.0,55.0,47.0,49.0,38.1,28.0,82,54,36,30.03,29.93,6,1,6,0.00
2013-5-29,69.0,57.9,48.0,50.0,36.0,20.0,71,46,23,30.04,29.96,5,1,5,0.00
2013-5-30,69.0,61.3,52.0,48.0,39.6,31.0,60,45,27,30.11,29.97,5,0,6,0.00
2013-5-31,76.0,66.3,57.0,48.0,32.2,14.0,43,29,16,30.18,30.06,6,1,8,0.00
2013-6-1,80.0,71.1,63.0,41.0,31.2,23.0,30,23,17,30.18,30.09,2,0,3,0.00
2013-6-2,72.0,66.3,59.0,53.0,38.3,27.0,79,38,22,30.11,29.99,2,1,5,0.00
2013-6-3,68.0,62.5,58.0,46.0,32.8,19.0,57,34,21,30.07,29.98,2,0,5,0.00
2013-6-4,71.0,62.4,57.0,45.0,27.4,11.0,63,28,15,30.16,30.05,2,0,3,0.00
2013-6-5,75.0,67.8,59.0,51.0,25.6,-4.0,46,23,7,30.20,30.14,3,0,3,0.00
2013-6-6,79.0,70.3,63.0,49.0,29.7,15.0,43,23,14,30.19,30.12,3,0,4,0.00
2013-6-7,83.0,74.1,66.0,42.0,22.5,7.0,27,15,9,30.16,30.08,2,0,2,0.00
2013-6-8,84.0,74.8,68.0,49.0,29.3,15.0,39,20,10,30.16,30.07,3,0,3,0.00
2013-6-9,72.0,65.9,58.0,47.0,28.7,15.0,55,26,13,30.17,30.09,3,1,4,0.00
2013-6-10,64.0,57.9,52.0,47.0,31.8,18.0,76,38,20,30.14,30.05,4,1,6,0.00
2013-6-11,74.0,66.5,57.0,39.0,31.7,23.0,39,28,22,30.24,30.13,4,1,5,0.00
2013-6-12,70.0,64.4,58.0,49.0,37.3,16.0,66,38,20,30.24,30.18,3,0,6,0.00
2013-6-13,71.0,64.6,58.0,44.0,28.3,-1.0,47,27,8,30.24,30.16,3,0,3,0.00
2013-6-14,72.0,64.9,59.0,45.0,19.9,-3.0,54,20,6,30.16,30.07,2,0,3,0.00
2013-6-15,68.0,62.3,57.0,40.0,18.1,-3.0,48,20,8,30.17,30.07,4,1,5,0.00
2013-6-16,70.0,64.6,56.0,43.0,22.1,-6.0,46,22,6,30.24,30.16,3,0,4,0.00
2013-6-17,72.0,63.3,56.0,44.0,30.9,13.0,56,31,16,30.23,30.16,3,1,3,0.00
2013-6-18,69.0,62.4,56.0,44.0,35.0,25.0,58,36,26,30.16,30.05,3,1,4,0.00
2013-6-19,69.0,58.5,47.0,50.0,32.0,9.0,66,40,10,30.08,30.00,4,1,5,0.00
2013-6-20,67.0,60.8,54.0,42.0,31.6,19.0,57,34,22,30.08,30.01,2,0,2,0.00
2013-6-21,66.0,65.8,65.0,40.0,38.8,37.0,40,37,34,30.11,30.08,1,0,3,0.00
2013-6-22,69.0,63.9,56.0,47.0,41.3,25.0,67,45,25,30.13,30.06,4,1,6,0.00
2013-6-23,64.0,58.6,53.0,45.0,41.0,35.0,71,53,39,30.08,29.98,3,1,4,0.00
2013-6-24,62.0,55.8,52.0,53.0,42.8,33.0,100,64,36,30.11,29.98,3,1,4,0.00
2013-6-25,70.0,61.7,53.0,54.0,48.2,45.0,79,62,45,30.22,30.11,3,0,6,0.00
2013-6-29,87.0,81.8,75.0,47.0,39.9,36.0,34,23,17,30.28,30.20,1,0,1,0.00
2013-6-30,89.0,83.3,76.0,45.0,35.0,26.0,27,18,11,30.23,30.16,2,0,3,0.00
2013-7-1,80.0,74.6,68.0,50.0,42.3,32.0,46,32,20,30.26,30.20,2,0,4,0.00
2013-7-2,79.0,72.3,67.0,50.0,41.4,38.0,42,33,28,30.35,30.25,2,0,5,0.00
2013-7-3,81.0,75.2,70.0,50.0,45.3,41.0,44,35,28,30.26,30.15,2,0,3,0.00
2013-7-4,79.0,75.0,68.0,48.0,45.1,35.0,43,35,28,30.17,30.10,2,0,4,0.00
2013-7-5,78.0,71.2,66.0,51.0,45.8,32.0,55,41,25,30.15,30.08,3,0,3,0.00
2013-7-6,77.0,69.8,66.0,49.0,43.1,26.0,46,39,21,30.13,30.07,2,0,3,0.00
2013-7-7,79.0,74.5,67.0,46.0,36.2,21.0,35,25,15,30.19,30.10,2,0,4,0.00
2013-7-8,82.0,75.2,67.0,40.0,27.7,22.0,31,18,12,30.33,30.19,3,0,4,0.00
2013-7-9,82.0,76.5,68.0,43.0,35.1,25.0,30,23,15,30.38,30.30,4,0,4,0.00
2013-7-17,76.0,70.7,65.0,34.0,25.3,12.0,31,19,11,30.33,30.28,2,0,4,0.00
2013-7-18,80.0,73.7,65.0,41.0,27.1,18.0,30,18,12,30.30,30.21,1,0,2,0.00
2013-7-19,80.0,75.6,70.0,46.0,35.3,16.0,41,25,12,30.24,30.15,1,0,2,0.00
2013-7-20,74.0,68.3,62.0,67.0,49.9,-99.9,100,57,16,30.20,30.11,1,0,2,0.11
2013-7-21,69.0,64.5,61.0,64.0,58.4,52.0,100,82,57,30.21,30.08,2,0,4,0.11
2013-7-22,67.0,62.4,59.0,66.0,61.8,59.0,100,98,87,30.27,30.17,0,0,1,0.04
2013-7-23,71.0,65.3,59.0,62.0,57.5,49.0,99,77,56,30.30,30.23,4,0,4,0.00
2013-7-24,76.0,70.0,65.0,55.0,51.3,44.0,64,52,42,30.27,30.21,4,0,4,0.00
2013-7-25,79.0,72.4,67.0,51.0,45.6,40.0,49,39,29,30.34,30.23,2,0,4,0.00
2013-7-26,74.0,69.2,65.0,56.0,47.2,32.0,71,48,24,30.39,30.30,1,0,2,0.02
2013-7-27,75.0,68.4,64.0,57.0,51.4,42.0,70,56,42,30.33,30.19,2,0,3,0.01
2013-7-28,73.0,65.7,60.0,48.0,38.0,16.0,62,37,17,30.20,30.12,2,0,3,0.00
2013-7-29,73.0,65.8,60.0,41.0,26.7,10.0,41,24,13,30.28,30.14,3,0,5,0.00
2013-7-30,72.0,67.0,63.0,48.0,41.8,31.0,53,40,30,30.36,30.28,2,0,4,0.00
2013-7-31,75.0,67.9,63.0,47.0,35.6,14.0,50,32,13,30.35,30.24,4,1,5,0.00
2013-8-1,73.0,66.1,61.0,39.0,21.4,0.0,41,20,8,30.25,30.16,3,1,4,0.00
2013-8-2,71.0,64.4,59.0,45.0,29.5,12.0,52,28,14,30.20,30.14,2,0,2,0.00
2013-8-3,72.0,66.0,58.0,39.0,21.2,-7.0,37,20,6,30.24,30.17,3,0,3,0.00
2013-8-4,75.0,68.0,63.0,38.0,22.0,-8.0,37,19,5,30.27,30.20,2,0,4,0.00
2013-8-5,75.0,67.1,62.0,38.0,20.2,-3.0,39,18,7,30.29,30.22,2,0,3,0.00
2013-8-6,73.0,65.0,60.0,44.0,24.2,4.0,55,24,10,30.29,30.20,3,0,3,0.00
2013-8-7,72.0,63.5,59.0,37.0,24.6,12.0,43,23,14,30.30,30.24,2,0,5,0.00
2013-8-8,69.0,62.1,58.0,38.0,19.2,3.0,45,21,10,30.24,30.15,4,0,3,0.00
2013-8-9,69.0,60.1,54.0,44.0,30.9,11.0,67,36,14,30.17,30.11,3,0,3,0.00
2013-8-21,80.0,72.0,66.0,45.0,36.9,28.0,41,28,21,30.28,30.20,2,0,3,0.00
2013-8-22,79.0,71.4,65.0,45.0,41.2,38.0,44,34,25,30.28,30.18,2,0,3,0.00
2013-8-23,78.0,68.9,63.0,41.0,37.4,32.0,41,32,19,30.21,30.09,3,0,3,0.00
2013-8-24,77.0,66.4,61.0,49.0,36.7,-99.9,63,36,17,30.18,30.10,3,1,5,0.00
2013-8-25,75.0,65.3,59.0,53.0,48.5,38.0,75,56,37,30.24,30.16,3,1,4,0.00
2013-8-26,64.0,61.4,59.0,63.0,57.3,50.0,100,87,67,30.24,30.16,1,0,0,0.00
2013-8-27,70.0,62.8,60.0,61.0,57.2,55.0,88,83,68,30.19,30.13,1,0,1,0.00
2013-10-18,63.0,55.8,50.0,22.0,15.1,8.0,33,20,14,30.26,30.17,4,0,5,0.00
2013-10-19,68.0,58.0,52.0,23.0,4.4,-99.9,27,13,8,30.30,30.23,0,0,0,0.00
2013-10-20,64.0,61.1,54.0,24.0,15.9,4.0,29,18,9,30.23,30.12,1,0,1,0.00
2013-10-21,68.0,60.8,54.0,21.0,12.2,3.0,21,15,11,30.22,30.16,1,0,0,0.00
2013-10-22,67.0,60.9,55.0,31.0,17.9,7.0,36,20,13,30.26,30.15,3,0,3,0.00
2013-10-23,65.0,58.7,53.0,24.0,19.3,15.0,26,21,17,30.16,30.07,1,0,0,0.00
2013-10-24,63.0,57.2,51.0,21.0,16.7,11.0,27,21,15,30.22,30.10,6,1,6,0.00
2013-10-25,66.0,61.4,56.0,27.0,18.6,15.0,24,19,16,30.34,30.27,1,0,4,0.00
2013-10-26,67.0,59.3,55.0,26.0,18.2,-99.9,30,21,17,30.37,30.26,1,0,0,0.00
2013-10-27,62.0,54.2,41.0,42.0,25.7,17.0,100,37,17,30.26,29.90,3,0,4,0.00
2013-10-28,41.0,35.2,32.0,41.0,33.5,-99.9,100,100,100,29.96,29.84,4,1,8,0.41
2013-10-29,35.0,33.1,31.0,35.0,33.1,31.0,100,100,100,30.06,29.96,0,0,0,0.41
2013-10-30,46.0,37.8,31.0,40.0,30.4,14.0,100,78,31,30.19,30.05,3,1,3,0.22